Regional Weather Roundup
Issued by NWS

Home | Current Version | Previous Version | Text Only | Print | Product List | Glossary On
Versions: 1 2 3 4 5 6 7 8 9 10 11 12 13 14 15 16 17 18 19 20 21 22 23 24 25 26 27 28 29 30 31 32 33 34 35 36 37 38 39 40 41 42 43 44 45 46 47 48 49 50
000
ASPQ40 PGUM 212112
RWRPQ
WEATHER ROUNDUP FOR THE MARIANAS AND MICRONESIA
NATIONAL WEATHER SERVICE TIYAN GU
700 AM CHST FRI AUG 22 2014

GUZ001>004-212200-
MARIANA ISLANDS-

CITY           SKY/WX    TMP DP  RH WIND       PRES   REMARKS
GUAM AIRPORT   SUNNY     81  75  83 CALM      29.86R
ANDERSEN AFB   SUNNY     77  75  94 CALM      29.86R
ROTA AIRPORT   MOSUNNY   77  75  94 CALM      29.86S
TINIAN AP      MOSUNNY   77  77 100 CALM      29.83R
SAIPAN AP      MOSUNNY   82  77  83 E3        29.85R HX  91

$$

PMZ161-212200-
REPUBLIC OF PALAU-

CITY           SKY/WX    TMP DP  RH WIND       PRES   REMARKS
KOROR AP       CLOUDY    81  81 100 W7        29.86  HX  91
KOROR WSO      LGT RAIN  77  75  94 CALM      29.86F

$$

PMZ171>174-212200-
FEDERATED STATES OF MICRONESIA-

CITY           SKY/WX    TMP DP  RH WIND       PRES   REMARKS
YAP AIRPORT    MOCLDY    79  77  94 CALM      29.83R
CHUUK AP       CLOUDY    79  79 100 VRB3      29.83R
POHNPEI AP     NOT AVBL
POHNPEI WSO    CLOUDY    77  75  94 SE6       29.92
KOSRAE AP      MOSUNNY   82  75  78 VRB3      29.88

$$

PMZ181-212200-
REPUBLIC OF THE MARSHALL ISLANDS-

CITY           SKY/WX    TMP DP  RH WIND       PRES   REMARKS
KWAJALEIN AP   PTSUNNY   84  73  70 CALM      29.91R HX  91
MAJURO AP      NOT AVBL
MAJURO WSO     MOSUNNY   86  77  74 NE9       29.88R HX  97

$$



USA.gov is the U.S. government's official web portal to all federal, state and local government web resources and services.